[[{"header":{"parameterUnit":"m.s-1","parameterCategory":1,"la1":30.2991,"la2":30.254,"lo1":-89.0895,"lo2":-89.0444,"dy":0.0017,"dx":0.0017,"nx":28,"ny":28,"refTime":"2024-03-10T21:00:00:Z","depth":0,"parameterNumber":2,"parameterNumberName":"U-component_of_WINDS"},"data":[0,0,0,0,0,0,0,0,0,0,0,0,0,0,0,0,0,0,0,0,0,0,0,0,0,0,0,0,0,0,0,0,0,0,0,0,0,0,0,0,0,0,0,0,0,0,0,0,0,0,0,0,0,0,0,0,0,0,1.1309,1.131,0,1.1367,1.1367,1.1368,1.1381,1.1381,1.138,1.138,1.144,1.1442,1.1444,0,0,0,0,0,0,0,0,0,0,0,0,0,1.1213,1.1215,1.1309,1.131,1.1311,1.1367,1.1367,1.1368,1.1381,1.1381,1.138,1.138,1.1439,1.1441,1.1444,0,0,0,0,0,0,0,0,0,0,0,0,0,1.1261,1.1215,1.1309,1.1324,1.1326,1.1366,1.1367,1.1368,1.1381,1.1381,1.138,1.1379,1.1438,1.1441,1.1444,1.1475,0,0,1.1453,1.1454,0,0,0,0,0,0,0,0,1.1258,1.1265,1.1321,1.1323,1.1325,1.1366,1.1356,1.1404,1.1381,1.136,1.138,1.1379,1.1416,1.1421,1.1433,1.1477,1.148,1.1453,1.1455,1.1456,1.1457,0,0,0,0,0,0,0,1.1255,1.1262,1.1332,1.1322,1.1324,1.1328,1.1335,1.1365,1.1391,1.1362,1.1363,1.137,1.1417,1.143,1.1434,1.1481,1.1453,1.1456,1.1458,1.1459,1.1556,1.1557,0,0,0,0,0,0,1.1249,1.1259,1.133,1.1334,1.1289,1.1331,1.1337,1.1354,1.139,1.1395,1.137,1.137,1.1425,1.1431,1.1436,1.1476,1.1456,1.1459,1.1461,1.1555,1.1556,1.1557,0,0,0,0,0,0,1.1247,1.1255,1.1328,1.1297,1.1306,1.1333,1.1351,1.1355,1.1368,1.1397,1.1401,1.1378,1.1425,1.1432,1.1466,1.1478,1.1461,1.1463,1.1554,1.1556,1.1557,1.1555,0,0,0,0,0,0,1.1244,1.1254,1.1265,1.1297,1.1308,1.1355,1.1352,1.1357,1.1373,1.1373,1.1406,1.141,1.1425,1.1461,1.1468,1.1482,1.1466,1.1553,1.1555,1.1556,1.1554,1.1556,1.1557,0,0,0,0,0,1.124,1.1262,1.1266,1.1274,1.1322,1.1356,1.1362,1.1378,1.1374,1.1386,1.1405,1.1409,1.1476,1.1464,1.1473,1.1487,1.1553,1.1554,1.1556,1.1553,1.1555,1.1557,0,0,0,0,0,0,1.1231,1.1266,1.1271,1.1303,1.1326,1.1358,1.1373,1.138,1.1405,1.1404,1.1423,1.143,1.1463,1.1479,1.1465,1.152,1.1514,1.1518,1.1509,1.1511,1.1513,1.1509,1.1468,0,0,0,0,0,1.1233,1.1256,1.1286,1.1312,1.1323,1.1346,1.1361,1.1372,1.1397,1.1407,1.1428,1.1452,1.1479,1.1496,1.1522,1.1556,1.1564,1.1571,1.1573,1.1574,1.1577,1.1598,1.1602,1.1563,1.1563,1.1563,0,0,1.1236,1.1259,1.1272,1.1311,1.133,1.1355,1.1354,1.138,1.14,1.1411,1.1444,1.146,1.1489,1.1524,1.154,1.1538,1.159,1.1576,1.1577,1.1579,1.1601,1.1604,1.1608,1.1564,1.1564,1.1564,0,0,1.1256,1.1274,1.1299,1.1319,1.1348,1.1363,1.1369,1.14,1.1412,1.1445,1.1455,1.1479,1.1523,1.1544,1.156,1.159,1.1597,1.1598,1.1608,1.1629,1.1632,1.1635,1.1647,1.1651,1.1601,1.1601,1.1601,0,1.1257,1.1294,1.1311,1.1337,1.1354,1.1366,1.1392,1.141,1.1447,1.1459,1.1456,1.1514,1.1534,1.1574,1.1582,1.1594,1.1603,1.1595,1.163,1.1633,1.1636,1.1648,1.1652,1.1601,1.1601,1.1601,1.1601,0,1.1295,1.1321,1.1337,1.1372,1.1392,1.1417,1.1439,1.1457,1.1466,1.1483,1.1518,1.1543,1.1575,1.1585,1.1594,1.1628,1.1626,1.1626,1.162,1.1639,1.1651,1.1656,1.1602,1.1601,1.1601,1.1601,0,0,1.1309,1.1354,1.136,1.1377,1.1411,1.1432,1.146,1.1491,1.1507,1.1532,1.1556,1.1595,1.1596,1.1615,1.1627,1.1645,1.1669,1.1643,1.1644,1.1648,1.171,1.171,1.1715,1.1674,1.1674,1.1675,1.1708,0,1.1334,1.1382,1.1399,1.1439,1.1465,1.1477,1.1501,1.1526,1.1542,1.1567,1.1585,1.1613,1.1612,1.1623,1.1642,1.1662,1.1682,1.166,1.1698,1.1699,1.1691,1.1721,1.172,1.175,1.1713,1.1713,1.1714,0,1.1368,1.1395,1.1438,1.1471,1.1482,1.1503,1.1535,1.1558,1.1586,1.1597,1.1619,1.163,1.1661,1.1653,1.1697,1.1681,1.1698,1.1711,1.1712,1.1717,1.1708,1.1727,1.176,1.1765,1.1721,1.172,1.172,0,1.1376,1.1422,1.1455,1.1469,1.1507,1.1522,1.1539,1.1567,1.1586,1.1614,1.1626,1.1657,1.1674,1.1699,1.1718,1.1711,1.1761,1.1754,1.1772,1.1771,1.1782,1.1781,1.1818,1.1791,1.1791,1.1791,1.1791,0,1.1402,1.1428,1.1459,1.1479,1.1509,1.1529,1.1559,1.1577,1.1602,1.1627,1.1639,1.1662,1.1687,1.1713,1.1729,1.1764,1.1771,1.1782,1.1786,1.1781,1.178,1.1792,1.1791,1.1792,1.1792,1.1791,1.1791,0,1.1416,1.1437,1.1473,1.1508,1.1517,1.1538,1.1568,1.1589,1.1606,1.1638,1.1646,1.1674,1.1706,1.1728,1.177,1.178,1.1818,1.1821,1.1809,1.1811,1.1827,1.1826,1.1875,1.1883,1.1849,1.1849,1.185,0,1.1431,1.1452,1.1489,1.1506,1.1524,1.1551,1.1571,1.1591,1.1611,1.1647,1.1664,1.1697,1.1725,1.1776,1.18,1.1833,1.1837,1.1852,1.1842,1.1838,1.1839,1.1838,1.1841,1.1854,1.1854,1.1855,1.1855,0,1.1457,1.1467,1.1494,1.1526,1.1549,1.1575,1.1601,1.1614,1.164,1.1662,1.1695,1.1717,1.176,1.1793,1.1828,1.1847,1.1856,1.1858,1.1864,1.186,1.1852,1.1858,1.1814,1.1857,1.1856,1.1856,1.1856,1.1856,1.1473,1.1493,1.1523,1.1553,1.1575,1.16,1.1621,1.1642,1.167,1.1706,1.1717,1.1753,1.1783,1.1831,1.185,1.1879,1.1878,1.1886,1.1888,1.189,1.1891,1.1847,1.1885,1.1885,1.1885,1.1885,1.1885,0,1.1501,1.1521,1.1549,1.1585,1.161,1.1616,1.1646,1.1666,1.1697,1.1724,1.1751,1.1791,1.1824,1.1852,1.1886,1.1904,1.1909,1.1913,1.1912,1.1917,1.1889,1.1881,1.1908,1.1908,1.1908,1.1908,1.1908,1.1908,1.1518,1.1553,1.1567,1.1613,1.1633,1.1667,1.1684,1.1707,1.1729,1.1773,1.18,1.1818,1.1847,1.1884,1.1915,1.1923,1.1935,1.1938,1.1947,1.1921,1.1918,1.1916,1.1908,1.194,1.194,1.1972,1.1972,1.1972]},{"header":{"parameterUnit":"m.s-1","parameterCategory":1,"la1":30.2991,"la2":30.254,"lo1":-89.0895,"lo2":-89.0444,"dy":0.0017,"dx":0.0017,"nx":28,"ny":28,"refTime":"2024-03-10T21:00:00:Z","depth":0,"parameterNumber":3,"parameterNumberName":"V-component_of_WINDS"},"data":[0,0,0,0,0,0,0,0,0,0,0,0,0,0,0,0,0,0,0,0,0,0,0,0,0,0,0,0,0,0,0,0,0,0,0,0,0,0,0,0,0,0,0,0,0,0,0,0,0,0,0,0,0,0,0,0,0,0,-4.7088,-4.7089,0,-4.7158,-4.7159,-4.7159,-4.7192,-4.7192,-4.7192,-4.7192,-4.7258,-4.726,-4.7262,0,0,0,0,0,0,0,0,0,0,0,0,0,-4.6982,-4.6984,-4.7088,-4.7089,-4.709,-4.7158,-4.7159,-4.716,-4.7192,-4.7192,-4.7192,-4.7192,-4.7258,-4.726,-4.7262,0,0,0,0,0,0,0,0,0,0,0,0,0,-4.7037,-4.6985,-4.7088,-4.7115,-4.7118,-4.7158,-4.7159,-4.716,-4.7192,-4.7192,-4.7192,-4.7192,-4.7257,-4.726,-4.7262,-4.7279,0,0,-4.727,-4.7271,0,0,0,0,0,0,0,0,-4.7034,-4.7041,-4.711,-4.7113,-4.7117,-4.7167,-4.7145,-4.72,-4.7192,-4.7164,-4.7192,-4.7192,-4.7227,-4.7232,-4.7245,-4.7282,-4.7285,-4.727,-4.7272,-4.7273,-4.7274,0,0,0,0,0,0,0,-4.703,-4.7038,-4.7116,-4.7111,-4.7115,-4.7123,-4.713,-4.7156,-4.7195,-4.7166,-4.7169,-4.7177,-4.7229,-4.7243,-4.7247,-4.7286,-4.727,-4.7273,-4.7274,-4.7275,-4.7343,-4.7343,0,0,0,0,0,0,-4.7023,-4.7035,-4.7114,-4.7118,-4.7075,-4.7124,-4.7133,-4.715,-4.7195,-4.7201,-4.7177,-4.7178,-4.7238,-4.7244,-4.725,-4.7274,-4.7273,-4.7276,-4.7277,-4.7343,-4.7343,-4.7343,0,0,0,0,0,0,-4.702,-4.7029,-4.7111,-4.7077,-4.7088,-4.7126,-4.7145,-4.7152,-4.7165,-4.7203,-4.7209,-4.7184,-4.7238,-4.7246,-4.7272,-4.7277,-4.7277,-4.7279,-4.7342,-4.7343,-4.7343,-4.7321,0,0,0,0,0,0,-4.7017,-4.7028,-4.7035,-4.7077,-4.709,-4.7133,-4.7146,-4.7153,-4.7171,-4.7173,-4.7211,-4.7217,-4.7239,-4.7268,-4.7275,-4.728,-4.7281,-4.7342,-4.7343,-4.7343,-4.7322,-4.7321,-4.732,0,0,0,0,0,-4.7013,-4.7025,-4.7035,-4.7045,-4.71,-4.7133,-4.714,-4.7167,-4.7171,-4.7178,-4.7203,-4.7216,-4.7275,-4.7271,-4.7279,-4.7285,-4.7342,-4.7342,-4.7343,-4.7322,-4.7321,-4.732,0,0,0,0,0,0,-4.6979,-4.703,-4.7043,-4.7069,-4.7097,-4.7139,-4.7148,-4.7164,-4.719,-4.7191,-4.7221,-4.7229,-4.7254,-4.7272,-4.7266,-4.7305,-4.731,-4.7312,-4.7292,-4.7291,-4.729,-4.7285,-4.7284,0,0,0,0,0,-4.6975,-4.6999,-4.7042,-4.7061,-4.7075,-4.7109,-4.7125,-4.7143,-4.7172,-4.7184,-4.721,-4.7237,-4.7262,-4.7278,-4.7302,-4.7325,-4.7335,-4.7334,-4.7333,-4.7332,-4.7333,-4.7348,-4.7349,-4.7345,-4.7345,-4.7345,0,0,-4.6966,-4.6997,-4.701,-4.7055,-4.7079,-4.7103,-4.7119,-4.7142,-4.716,-4.7187,-4.7214,-4.7235,-4.7267,-4.7293,-4.7305,-4.7308,-4.7337,-4.7332,-4.7331,-4.7333,-4.7349,-4.7349,-4.7349,-4.7345,-4.7345,-4.7345,0,0,-4.6962,-4.6988,-4.7007,-4.7032,-4.7069,-4.7093,-4.7097,-4.7138,-4.7154,-4.7183,-4.7204,-4.7225,-4.7267,-4.729,-4.7307,-4.7316,-4.733,-4.7324,-4.7318,-4.7333,-4.7333,-4.7334,-4.7338,-4.7339,-4.7325,-4.7325,-4.7325,0,-4.6945,-4.6983,-4.7014,-4.7038,-4.7058,-4.7087,-4.7107,-4.7129,-4.7171,-4.7183,-4.7188,-4.7244,-4.7267,-4.7299,-4.7302,-4.7315,-4.7321,-4.7318,-4.7331,-4.7332,-4.7333,-4.7337,-4.7338,-4.7324,-4.7324,-4.7324,-4.7324,0,-4.6961,-4.6988,-4.6999,-4.7042,-4.7063,-4.7085,-4.7119,-4.7137,-4.7155,-4.7178,-4.7208,-4.7238,-4.7271,-4.728,-4.7296,-4.7315,-4.7317,-4.7326,-4.7331,-4.7332,-4.7336,-4.7338,-4.7322,-4.7323,-4.7323,-4.7323,0,0,-4.6934,-4.6998,-4.7002,-4.7023,-4.7068,-4.7089,-4.7113,-4.7147,-4.7162,-4.7191,-4.7212,-4.7249,-4.7259,-4.7279,-4.7298,-4.7311,-4.7318,-4.7319,-4.732,-4.7318,-4.7343,-4.7335,-4.7337,-4.7328,-4.7329,-4.7329,-4.734,0,-4.6936,-4.6982,-4.7012,-4.7045,-4.7071,-4.7101,-4.7122,-4.7151,-4.7175,-4.7199,-4.7224,-4.7251,-4.7261,-4.7274,-4.7288,-4.7314,-4.7323,-4.7314,-4.7347,-4.7348,-4.7338,-4.7339,-4.733,-4.7339,-4.7342,-4.7342,-4.7343,0,-4.6943,-4.6975,-4.7012,-4.7058,-4.7069,-4.7088,-4.7124,-4.7147,-4.7182,-4.7198,-4.7222,-4.7243,-4.727,-4.7275,-4.7312,-4.7305,-4.7321,-4.7336,-4.7337,-4.734,-4.7344,-4.7342,-4.7343,-4.7344,-4.7345,-4.7345,-4.7345,0,-4.6921,-4.6973,-4.7002,-4.7019,-4.7073,-4.7086,-4.7108,-4.7144,-4.7164,-4.7195,-4.7208,-4.7241,-4.7259,-4.7284,-4.7313,-4.7314,-4.7348,-4.7355,-4.7362,-4.7361,-4.7366,-4.7365,-4.7369,-4.7377,-4.7377,-4.7377,-4.7377,0,-4.6919,-4.694,-4.6993,-4.7011,-4.7036,-4.7072,-4.7096,-4.7121,-4.7153,-4.7176,-4.7203,-4.7224,-4.7262,-4.7287,-4.7311,-4.7339,-4.7346,-4.736,-4.7365,-4.7357,-4.7355,-4.7367,-4.7367,-4.7377,-4.7377,-4.7377,-4.7377,0,-4.6897,-4.6933,-4.6967,-4.7017,-4.703,-4.7047,-4.7089,-4.7107,-4.7134,-4.7163,-4.7172,-4.7213,-4.7245,-4.7278,-4.7319,-4.7335,-4.7363,-4.7371,-4.7351,-4.7355,-4.736,-4.7359,-4.7371,-4.7374,-4.738,-4.738,-4.738,0,-4.6893,-4.691,-4.6964,-4.6983,-4.7006,-4.7035,-4.7057,-4.7093,-4.7115,-4.7159,-4.7172,-4.7207,-4.7236,-4.7286,-4.7319,-4.7352,-4.7361,-4.7363,-4.7365,-4.7357,-4.7361,-4.7359,-4.7362,-4.7361,-4.7361,-4.736,-4.736,0,-4.6882,-4.6901,-4.6932,-4.697,-4.6996,-4.7028,-4.706,-4.7073,-4.7117,-4.7139,-4.7174,-4.7197,-4.7243,-4.7277,-4.7315,-4.7337,-4.7356,-4.736,-4.7363,-4.7354,-4.7342,-4.7349,-4.7348,-4.7359,-4.7359,-4.7359,-4.7359,-4.7359,-4.6869,-4.6887,-4.6929,-4.6963,-4.6993,-4.7023,-4.7044,-4.7075,-4.7105,-4.7147,-4.7167,-4.7202,-4.7239,-4.7293,-4.7315,-4.7343,-4.7348,-4.7352,-4.7353,-4.7354,-4.7352,-4.7339,-4.735,-4.735,-4.735,-4.735,-4.735,0,-4.686,-4.689,-4.6922,-4.6968,-4.6996,-4.7015,-4.7052,-4.7074,-4.7105,-4.7139,-4.7169,-4.721,-4.7245,-4.7282,-4.7319,-4.7334,-4.7343,-4.7342,-4.7341,-4.7346,-4.7345,-4.7339,-4.7334,-4.7334,-4.7334,-4.7334,-4.7334,-4.7334,-4.6859,-4.6891,-4.6915,-4.6963,-4.6992,-4.7029,-4.7049,-4.7077,-4.7106,-4.7151,-4.7181,-4.7206,-4.7242,-4.7282,-4.7315,-4.7325,-4.7337,-4.7333,-4.7346,-4.7344,-4.7345,-4.7347,-4.7341,-4.7336,-4.7336,-4.7344,-4.7344,-4.7344]}]]